Location: Ellingshausen
(50.5460°N, 10.4723°E)
Time: 23:31:29
(UTC+00:00)

Timation 1 Rocket - Pass Details

Date: 18 January 2026
Orbit: 896 x 908 km, 70.0° (Epoch: 7 February)

Event Time Altitude Azimuth Distance (km) Brightness Sun altitude
Exits shadow 04:19:01 73° 271° (W) 949 4.2 -26.6°
Maximum altitude 04:19:20 75° 243° (WSW) 941 4.2 -26.6°
Drops below altitude 10° 04:25:18 10° 159° (SSE) 2,585 7.0 -25.6°
Sets 04:27:47 0° 157° (SSE) 3,523 7.7 -25.3°
